09-03-2023, 00:00:08,     31,    1.6,   -1.3,   0.00,   0.00,  991.2,    0.0, -999.0
09-03-2023, 00:00:18,     43,    0.5,   -1.4,   0.00,   0.00,  991.2,    0.0, -999.0
09-03-2023, 00:00:28,     27,    1.9,   -1.5,   0.00,   0.00,  991.2,    0.2, -999.0
09-03-2023, 00:00:38,     28,    0.4,   -1.4,   0.00,   0.00,  991.2,    0.2, -999.0
09-03-2023, 00:00:48,     28,    0.0,   -1.5,   0.00,   0.00,  991.1,    0.1, -999.0
09-03-2023, 00:00:58,     29,    0.0,   -1.5,   0.00,   0.00,  991.1,    0.1, -999.0
09-03-2023, 00:01:08,     32,    0.3,   -1.5,   0.00,   0.00,  991.2,    0.1, -999.0
09-03-2023, 00:01:18,     32,    0.0,   -1.5,   0.00,   0.00,  991.1,    0.2, -999.0
09-03-2023, 00:01:28,     31,    0.0,   -1.5,   0.00,   0.00,  991.1,    0.1, -999.0
09-03-2023, 00:01:38,     32,    0.0,   -1.5,   0.00,   0.00,  991.2,    0.1, -999.0
09-03-2023, 00:01:48,     33,    0.5,   -1.4,   0.00,   0.00,  991.2,    0.0, -999.0
09-03-2023, 00:01:58,     33,    0.4,   -1.4,   0.00,   0.00,  991.2,    0.1, -999.0
09-03-2023, 00:02:08,      7,    0.3,   -1.5,   0.00,   0.01,  991.3,    0.1, -999.0
09-03-2023, 00:02:18,      7,    0.1,   -1.6,   0.00,   0.00,  991.2,    0.1, -999.0
09-03-2023, 00:02:28,      6,    0.0,   -1.5,   0.00,   0.00,  991.2,    0.2, -999.0
09-03-2023, 00:02:38,      8,    0.1,   -1.6,   0.00,   0.00,  991.2,    0.1, -999.0
09-03-2023, 00:02:48,      8,    0.4,   -1.5,   0.00,   0.00,  991.3,    0.1, -999.0
09-03-2023, 00:02:58,      7,    0.0,   -1.6,   0.00,   0.00,  991.2,    0.1, -999.0
09-03-2023, 00:03:08,     50,    0.3,   -1.6,   0.00,   0.00,  991.3,    0.1, -999.0
09-03-2023, 00:03:18,     50,    0.0,   -1.6,   0.00,   0.00,  991.3,    0.1, -999.0
09-03-2023, 00:03:28,     50,    0.2,   -1.6,   0.00,   0.00,  991.3,    0.0, -999.0
09-03-2023, 00:03:38,     50,    0.3,   -1.5,   0.00,   0.00,  991.3,    0.1, -999.0
09-03-2023, 00:03:48,     50,    0.0,   -1.7,   0.00,   0.00,  991.3,    0.0, -999.0
09-03-2023, 00:03:58,     50,    0.0,   -1.6,   0.00,   0.00,  991.3,    0.0, -999.0
09-03-2023, 00:04:08,     51,    0.0,   -1.7,   0.00,   0.00,  991.3,    0.0, -999.0
09-03-2023, 00:04:18,     51,    0.0,   -1.5,   0.00,   0.01,  991.3,    0.0, -999.0
09-03-2023, 00:04:28,     51,    0.0,   -1.5,   0.00,   0.00,  991.2,    0.1, -999.0
09-03-2023, 00:04:38,     51,    0.0,   -1.5,   0.00,   0.00,  991.2,    0.0, -999.0
09-03-2023, 00:04:48,     51,    0.0,   -1.5,   0.00,   0.00,  991.2,    0.1, -999.0
09-03-2023, 00:04:58,     26,    2.0,   -1.4,   0.00,   0.00,  991.3,    0.1, -999.0
09-03-2023, 00:05:08,     28,    2.3,   -1.6,   0.00,   0.00,  991.3,    0.1, -999.0
09-03-2023, 00:05:18,     36,    1.3,   -1.7,   0.00,   0.00,  991.3,    0.1, -999.0
09-03-2023, 00:05:28,     20,    1.1,   -1.6,   0.00,   0.00,  991.3,    0.1, -999.0
09-03-2023, 00:05:38,     26,    0.6,   -1.6,   0.00,   0.00,  991.3,    0.1, -999.0
09-03-2023, 00:05:48,     26,    0.0,   -1.5,   0.00,   0.00,  991.2,    0.1, -999.0
09-03-2023, 00:05:58,     26,    0.1,   -1.4,   0.00,   0.00,  991.2,    0.0, -999.0
09-03-2023, 00:06:08,     32,    0.2,   -1.5,   0.00,   0.00,  991.2,    0.0, -999.0
09-03-2023, 00:06:18,     79,    0.7,   -1.4,   0.00,   0.00,  991.3,    0.1, -999.0
09-03-2023, 00:06:28,     70,    0.6,   -1.4,   0.00,   0.00,  991.3,    0.1, -999.0
09-03-2023, 00:06:38,     51,    0.7,   -1.4,   0.00,   0.00,  991.2,    0.1, -999.0
09-03-2023, 00:06:48,     29,    2.0,   -1.4,   0.00,   0.00,  991.2,    0.1, -999.0
09-03-2023, 00:06:58,     71,    1.7,   -1.5,   0.00,   0.00,  991.3,    0.0, -999.0
09-03-2023, 00:07:08,     79,    0.6,   -1.5,   0.00,   0.00,  991.2,    0.1, -999.0
09-03-2023, 00:07:18,     55,    0.8,   -1.6,   0.00,   0.00,  991.2,    0.1, -999.0
09-03-2023, 00:07:27,     78,    0.7,   -1.5,   0.00,   0.01,  991.2,    0.1, -999.0
09-03-2023, 00:07:38,     78,    0.0,   -1.4,   0.00,   0.00,  991.1,    0.0, -999.0
09-03-2023, 00:07:48,     78,    0.0,   -1.5,   0.00,   0.00,  991.1,    0.0, -999.0
09-03-2023, 00:07:57,     72,    0.1,   -1.4,   0.00,   0.00,  991.1,    0.1, -999.0
09-03-2023, 00:08:07,     72,    0.1,   -1.3,   0.00,   0.00,  991.1,    0.0, -999.0
09-03-2023, 00:08:18,     72,    0.0,   -1.3,   0.00,   0.00,  991.1,    0.0, -999.0
09-03-2023, 00:08:28,     72,    0.0,   -1.3,   0.00,   0.00,  991.1,    0.1, -999.0
09-03-2023, 00:08:37,     72,    0.2,   -1.4,   0.00,   0.00,  991.2,    0.1, -999.0
09-03-2023, 00:08:47,     40,    1.3,   -1.3,   0.00,   0.00,  991.2,    0.1, -999.0
09-03-2023, 00:08:58,     57,    1.6,   -1.4,   0.00,   0.00,  991.2,    0.1, -999.0
09-03-2023, 00:09:07,     48,    0.3,   -1.5,   0.00,   0.00,  991.2,    0.0, -999.0
09-03-2023, 00:09:17,     61,    0.3,   -1.5,   0.00,   0.00,  991.1,    0.1, -999.0
09-03-2023, 00:09:27,     67,    0.1,   -1.5,   0.00,   0.00,  991.2,    0.0, -999.0
09-03-2023, 00:09:38,     67,    0.0,   -1.4,   0.00,   0.00,  991.1,    0.0, -999.0
09-03-2023, 00:09:47,     67,    0.0,   -1.5,   0.00,   0.01,  991.1,    0.0, -999.0
09-03-2023, 00:09:57,     67,    0.0,   -1.4,   0.00,   0.00,  991.1,    0.0, -999.0
09-03-2023, 00:10:08,     67,    0.0,   -1.4,   0.00,   0.00,  991.1,    0.1, -999.0
09-03-2023, 00:10:17,     67,    0.0,   -1.4,   0.00,   0.00,  991.1,    0.0, -999.0
09-03-2023, 00:10:27,     67,    0.0,   -1.4,   0.00,   0.00,  991.1,    0.0, -999.0
09-03-2023, 00:10:37,     67,    0.0,   -1.3,   0.00,   0.00,  991.1,    0.0, -999.0
09-03-2023, 00:10:47,     74,    0.0,   -1.3,   0.00,   0.00,  991.1,    0.0, -999.0
09-03-2023, 00:10:57,     74,    0.0,   -1.3,   0.00,   0.00,  991.2,    0.1, -999.0
09-03-2023, 00:11:07,     26,    1.0,   -1.3,   0.00,   0.00,  991.1,    0.2, -999.0
09-03-2023, 00:11:17,     47,    1.3,   -1.3,   0.00,   0.00,  991.2,    0.1, -999.0
09-03-2023, 00:11:27,     67,    1.7,   -1.3,   0.00,   0.00,  991.2,    0.2, -999.0
09-03-2023, 00:11:37,     61,    0.3,   -1.5,   0.00,   0.00,  991.2,    0.1, -999.0
09-03-2023, 00:11:47,     63,    0.1,   -1.5,   0.00,   0.00,  991.2,    0.0, -999.0
09-03-2023, 00:11:57,     65,    0.1,   -1.6,   0.00,   0.00,  991.2,    0.0, -999.0
09-03-2023, 00:12:07,     65,    0.0,   -1.6,   0.00,   0.01,  991.2,    0.0, -999.0
09-03-2023, 00:12:17,     65,    0.0,   -1.4,   0.00,   0.00,  991.2,    0.1, -999.0
09-03-2023, 00:12:27,     65,    0.0,   -1.4,   0.00,   0.00,  991.2,    0.1, -999.0
09-03-2023, 00:12:37,     59,    0.2,   -1.4,   0.00,   0.00,  991.3,    0.2, -999.0
09-03-2023, 00:12:47,     34,    0.4,   -1.4,   0.00,   0.00,  991.3,    0.2, -999.0
09-03-2023, 00:12:57,     32,    0.3,   -1.5,   0.00,   0.00,  991.2,    0.0, -999.0
09-03-2023, 00:13:07,     32,    0.0,   -1.6,   0.00,   0.00,  991.2,    0.0, -999.0
09-03-2023, 00:13:17,     32,    0.1,   -1.5,   0.00,   0.00,  991.2,    0.0, -999.0
09-03-2023, 00:13:27,     32,    0.1,   -1.6,   0.00,   0.00,  991.2,    0.0, -999.0
09-03-2023, 00:13:37,     32,    0.0,   -1.6,   0.00,   0.00,  991.2,    0.1, -999.0
09-03-2023, 00:13:47,     32,    0.0,   -1.6,   0.00,   0.00,  991.2,    0.1, -999.0
09-03-2023, 00:13:57,     32,    0.0,   -1.5,   0.00,   0.00,  991.2,    0.1, -999.0
09-03-2023, 00:14:07,     32,    0.0,   -1.4,   0.00,   0.00,  991.2,    0.0, -999.0
09-03-2023, 00:14:17,     40,    1.0,   -1.5,   0.00,   0.01,  991.3,    0.1, -999.0
09-03-2023, 00:14:27,     22,    1.3,   -1.4,   0.00,   0.00,  991.3,    0.1, -999.0
09-03-2023, 00:14:37,     21,    0.1,   -1.6,   0.00,   0.00,  991.2,    0.1, -999.0
09-03-2023, 00:14:47,     22,    0.0,   -1.5,   0.00,   0.00,  991.2,    0.1, -999.0
09-03-2023, 00:14:57,     22,    0.0,   -1.5,   0.00,   0.00,  991.2,    0.0, -999.0
09-03-2023, 00:15:07,     29,    0.0,   -1.4,   0.00,   0.00,  991.2,    0.1, -999.0
09-03-2023, 00:15:17,     33,    0.6,   -1.4,   0.00,   0.00,  991.3,    0.0, -999.0
09-03-2023, 00:15:27,     35,    0.8,   -1.4,   0.00,   0.00,  991.3,    0.1, -999.0
09-03-2023, 00:15:37,     45,    0.4,   -1.4,   0.00,   0.00,  991.3,    0.2, -999.0
09-03-2023, 00:15:47,     24,    0.4,   -1.5,   0.00,   0.00,  991.2,    0.0, -999.0
09-03-2023, 00:15:57,     35,    1.6,   -1.5,   0.00,   0.00,  991.3,    0.1, -999.0
09-03-2023, 00:16:07,     45,    2.2,   -1.5,   0.00,   0.00,  991.3,    0.1, -999.0
09-03-2023, 00:16:17,     24,    2.7,   -1.7,   0.00,   0.00,  991.3,    0.0, -999.0
09-03-2023, 00:16:26,     35,    1.2,   -1.6,   0.00,   0.00,  991.3,    0.0, -999.0
09-03-2023, 00:16:37,     19,    0.6,   -1.6,   0.00,   0.01,  991.3,    0.0, -999.0
09-03-2023, 00:16:47,     19,    0.5,   -1.6,   0.00,   0.00,  991.3,    0.0, -999.0
09-03-2023, 00:16:56,     19,    0.4,   -1.6,   0.00,   0.00,  991.2,    0.2, -999.0
09-03-2023, 00:17:07,      0,    0.9,   -1.6,   0.00,   0.00,  991.2,    0.1, -999.0
09-03-2023, 00:17:17,      0,    0.1,   -1.6,   0.00,   0.00,  991.2,    0.0, -999.0
09-03-2023, 00:17:27,      0,    0.0,   -1.7,   0.00,   0.00,  991.1,    0.0, -999.0
09-03-2023, 00:17:36,      0,    0.1,   -1.8,   0.00,   0.00,  991.2,    0.1, -999.0
09-03-2023, 00:17:47,      0,    0.1,   -1.6,   0.00,   0.00,  991.2,    0.0, -999.0
09-03-2023, 00:17:57,      0,    0.0,   -1.5,   0.00,   0.00,  991.2,    0.1, -999.0
09-03-2023, 00:18:06,      0,    0.3,   -1.4,   0.00,   0.00,  991.3,    0.0, -999.0
09-03-2023, 00:18:16,     28,    0.6,   -1.5,   0.00,   0.00,  991.2,    0.1, -999.0
09-03-2023, 00:18:27,     17,    0.8,   -1.5,   0.00,   0.00,  991.3,    0.0, -999.0
09-03-2023, 00:18:37,      0,    0.7,   -1.6,   0.00,   0.00,  991.2,    0.1, -999.0
09-03-2023, 00:18:46,     12,    2.6,   -1.5,   0.00,   0.01,  991.3,    0.1, -999.0
09-03-2023, 00:18:56,      9,    2.2,   -1.6,   0.00,   0.00,  991.3,    0.1, -999.0
09-03-2023, 00:19:07,     30,    1.1,   -1.6,   0.00,   0.00,  991.2,    0.1, -999.0
09-03-2023, 00:19:16,     11,    1.3,   -1.6,   0.00,   0.00,  991.3,    0.1, -999.0
09-03-2023, 00:19:26,    353,    1.9,   -1.6,   0.00,   0.00,  991.3,    0.0, -999.0
09-03-2023, 00:19:36,     48,    1.2,   -1.6,   0.00,   0.00,  991.3,    0.1, -999.0
09-03-2023, 00:19:46,     48,    0.2,   -1.6,   0.00,   0.00,  991.2,    0.1, -999.0
09-03-2023, 00:19:56,     48,    0.0,   -1.5,   0.00,   0.00,  991.2,    0.0, -999.0
09-03-2023, 00:20:06,     44,    1.5,   -1.5,   0.00,   0.00,  991.3,    0.1, -999.0
09-03-2023, 00:20:16,     19,    2.9,   -1.4,   0.00,   0.00,  991.3,    0.1, -999.0
09-03-2023, 00:20:26,     51,    2.0,   -1.5,   0.00,   0.00,  991.3,    0.1, -999.0
09-03-2023, 00:20:36,     14,    3.6,   -1.5,   0.00,   0.00,  991.3,    0.1, -999.0
09-03-2023, 00:20:46,     41,    1.7,   -1.6,   0.00,   0.00,  991.3,    0.1, -999.0
09-03-2023, 00:20:56,     24,    1.7,   -1.6,   0.00,   0.00,  991.3,    0.1, -999.0
09-03-2023, 00:21:06,     18,    1.2,   -1.6,   0.00,   0.00,  991.3,    0.2, -999.0
09-03-2023, 00:21:16,     46,    1.9,   -1.6,   0.00,   0.00,  991.3,    0.0, -999.0
09-03-2023, 00:21:26,     18,    2.2,   -1.6,   0.00,   0.01,  991.3,    0.0, -999.0
09-03-2023, 00:21:36,     38,    1.2,   -1.5,   0.00,   0.00,  991.3,    0.1, -999.0
09-03-2023, 00:21:46,     26,    1.1,   -1.6,   0.00,   0.00,  991.3,    0.2, -999.0
09-03-2023, 00:21:56,     34,    2.0,   -1.5,   0.00,   0.00,  991.3,    0.0, -999.0
09-03-2023, 00:22:06,     33,    0.9,   -1.5,   0.00,   0.00,  991.3,    0.1, -999.0
09-03-2023, 00:22:16,     20,    0.2,   -1.5,   0.00,   0.00,  991.3,    0.0, -999.0
09-03-2023, 00:22:26,     20,    0.2,   -1.6,   0.00,   0.00,  991.3,    0.1, -999.0
09-03-2023, 00:22:36,    356,    0.1,   -1.6,   0.00,   0.00,  991.3,    0.1, -999.0
09-03-2023, 00:22:46,    357,    0.2,   -1.5,   0.00,   0.00,  991.3,    0.3, -999.0
09-03-2023, 00:22:56,    356,    0.0,   -1.6,   0.00,   0.00,  991.2,    0.1, -999.0
09-03-2023, 00:23:06,     54,    0.1,   -1.6,   0.00,   0.00,  991.3,    0.0, -999.0
09-03-2023, 00:23:16,     54,    0.0,   -1.5,   0.00,   0.00,  991.2,    0.0, -999.0
09-03-2023, 00:23:26,     54,    0.0,   -1.5,   0.00,   0.00,  991.3,    0.0, -999.0
09-03-2023, 00:23:36,     53,    0.0,   -1.5,   0.00,   0.00,  991.2,    0.0, -999.0
09-03-2023, 00:23:46,     61,    0.0,   -1.6,   0.00,   0.00,  991.2,    0.0, -999.0
09-03-2023, 00:23:56,    116,    0.9,   -1.4,   0.00,   0.00,  991.3,    0.0, -999.0
09-03-2023, 00:24:06,     30,    0.3,   -1.3,   0.00,   0.00,  991.3,    0.2, -999.0
09-03-2023, 00:24:16,     30,    0.1,   -1.4,   0.00,   0.00,  991.3,    0.1, -999.0
09-03-2023, 00:24:26,     31,    0.2,   -1.3,   0.00,   0.00,  991.3,    0.0, -999.0
09-03-2023, 00:24:36,     31,    0.0,   -1.4,   0.00,   0.01,  991.3,    0.1, -999.0
09-03-2023, 00:24:46,     31,    0.0,   -1.4,   0.00,   0.00,  991.3,    0.1, -999.0
09-03-2023, 00:24:56,     31,    0.0,   -1.5,   0.00,   0.00,  991.3,    0.0, -999.0
09-03-2023, 00:25:06,     30,    0.8,   -1.4,   0.00,   0.00,  991.3,    0.1, -999.0
09-03-2023, 00:25:16,     27,    1.5,   -1.5,   0.00,   0.00,  991.3,    0.1, -999.0
09-03-2023, 00:25:26,     29,    0.1,   -1.6,   0.00,   0.00,  991.3,    0.0, -999.0
09-03-2023, 00:25:36,     29,    0.0,   -1.5,   0.00,   0.00,  991.2,    0.0, -999.0
09-03-2023, 00:25:46,     29,    0.0,   -1.6,   0.00,   0.00,  991.3,    0.1, -999.0
09-03-2023, 00:25:55,     29,    0.0,   -1.5,   0.00,   0.00,  991.3,    0.1, -999.0
09-03-2023, 00:26:06,     29,    0.0,   -1.5,   0.00,   0.00,  991.3,    0.0, -999.0
09-03-2023, 00:26:16,     41,    0.2,   -1.5,   0.00,   0.00,  991.3,    0.1, -999.0
09-03-2023, 00:26:26,     19,    1.2,   -1.4,   0.00,   0.00,  991.3,    0.1, -999.0
09-03-2023, 00:26:35,     22,    1.9,   -1.5,   0.00,   0.00,  991.3,    0.1, -999.0
09-03-2023, 00:26:46,     13,    1.3,   -1.5,   0.00,   0.00,  991.3,    0.1, -999.0
09-03-2023, 00:26:56,     13,    0.5,   -1.6,   0.00,   0.00,  991.3,    0.1, -999.0
09-03-2023, 00:27:05,     17,    0.4,   -1.6,   0.00,   0.00,  991.3,    0.2, -999.0
09-03-2023, 00:27:16,     66,    0.8,   -1.6,   0.00,   0.00,  991.3,    0.0, -999.0
09-03-2023, 00:27:26,     48,    0.6,   -1.5,   0.00,   0.00,  991.3,    0.0, -999.0
09-03-2023, 00:27:35,     47,    1.1,   -1.5,   0.00,   0.00,  991.3,    0.0, -999.0
09-03-2023, 00:27:45,     62,    0.4,   -1.5,   0.00,   0.00,  991.3,    0.1, -999.0
09-03-2023, 00:27:56,     35,    1.3,   -1.5,   0.00,   0.01,  991.3,    0.1, -999.0
09-03-2023, 00:28:06,     46,    2.1,   -1.5,   0.00,   0.00,  991.3,    0.0, -999.0
09-03-2023, 00:28:15,     26,    1.1,   -1.5,   0.00,   0.00,  991.3,    0.1, -999.0
09-03-2023, 00:28:25,     38,    0.9,   -1.5,   0.00,   0.00,  991.3,    0.1, -999.0
09-03-2023, 00:28:36,     39,    0.3,   -1.5,   0.00,   0.00,  991.2,    0.1, -999.0
09-03-2023, 00:28:45,     38,    0.1,   -1.4,   0.00,   0.00,  991.2,    0.0, -999.0
09-03-2023, 00:28:55,     38,    0.0,   -1.6,   0.00,   0.00,  991.2,    0.1, -999.0
09-03-2023, 00:29:05,     39,    0.0,   -1.7,   0.00,   0.00,  991.1,    0.0, -999.0
09-03-2023, 00:29:15,     39,    0.0,   -1.5,   0.00,   0.00,  991.1,    0.0, -999.0
09-03-2023, 00:29:25,     38,    0.0,   -1.5,   0.00,   0.00,  991.1,    0.0, -999.0
09-03-2023, 00:29:35,     54,    0.2,   -1.4,   0.00,   0.00,  991.2,    0.0, -999.0
09-03-2023, 00:29:45,     54,    1.5,   -1.4,   0.00,   0.00,  991.3,    0.0, -999.0
09-03-2023, 00:29:55,     45,    0.8,   -1.4,   0.00,   0.00,  991.2,    0.1, -999.0
09-03-2023, 00:30:05,     45,    0.8,   -1.4,   0.00,   0.00,  991.3,    0.0, -999.0
09-03-2023, 00:30:15,     45,    0.0,   -1.6,   0.00,   0.00,  991.2,    0.0, -999.0
09-03-2023, 00:30:25,     58,    0.1,   -1.4,   0.00,   0.00,  991.2,    0.0, -999.0
09-03-2023, 00:30:35,      0,    1.6,   -1.4,   0.00,   0.00,  991.3,    0.0, -999.0
09-03-2023, 00:30:45,     24,    1.4,   -1.5,   0.00,   0.00,  991.3,    0.1, -999.0
09-03-2023, 00:30:55,     38,    0.6,   -1.4,   0.00,   0.00,  991.3,    0.1, -999.0
09-03-2023, 00:31:05,     37,    0.9,   -1.5,   0.00,   0.00,  991.3,    0.0, -999.0
09-03-2023, 00:31:15,     41,    0.2,   -1.5,   0.00,   0.00,  991.3,    0.1, -999.0
09-03-2023, 00:31:25,     48,    1.7,   -1.5,   0.00,   0.00,  991.3,    0.1, -999.0
09-03-2023, 00:31:35,     51,    0.9,   -1.5,   0.00,   0.00,  991.3,    0.1, -999.0
09-03-2023, 00:31:45,     41,    1.3,   -1.6,   0.00,   0.00,  991.3,    0.0, -999.0
09-03-2023, 00:31:55,     46,    0.6,   -1.6,   0.00,   0.00,  991.3,    0.0, -999.0
09-03-2023, 00:32:05,     45,    0.3,   -1.6,   0.00,   0.01,  991.3,    0.2, -999.0
09-03-2023, 00:32:15,     24,    0.9,   -1.6,   0.00,   0.00,  991.4,    0.1, -999.0
09-03-2023, 00:32:25,     33,    0.8,   -1.6,   0.00,   0.00,  991.4,    0.1, -999.0
09-03-2023, 00:32:35,     29,    0.9,   -1.5,   0.00,   0.00,  991.3,    0.0, -999.0
09-03-2023, 00:32:45,     29,    0.1,   -1.6,   0.00,   0.00,  991.3,    0.0, -999.0
09-03-2023, 00:32:55,     29,    0.1,   -1.5,   0.00,   0.00,  991.3,    0.0, -999.0
09-03-2023, 00:33:05,     29,    0.0,   -1.5,   0.00,   0.00,  991.3,    0.0, -999.0
09-03-2023, 00:33:15,     29,    0.0,   -1.6,   0.00,   0.00,  991.3,    0.0, -999.0
09-03-2023, 00:33:25,     29,    0.0,   -1.5,   0.00,   0.00,  991.3,    0.1, -999.0
09-03-2023, 00:33:35,     29,    0.0,   -1.5,   0.00,   0.00,  991.3,    0.0, -999.0
09-03-2023, 00:33:45,     29,    0.0,   -1.4,   0.00,   0.00,  991.3,    0.1, -999.0
09-03-2023, 00:33:55,     32,    0.0,   -1.4,   0.00,   0.00,  991.3,    0.0, -999.0
09-03-2023, 00:34:05,     33,    0.0,   -1.3,   0.00,   0.00,  991.3,    0.1, -999.0
09-03-2023, 00:34:15,     33,    0.2,   -1.3,   0.00,   0.00,  991.4,    0.0, -999.0
09-03-2023, 00:34:25,     33,    0.2,   -1.3,   0.00,   0.00,  991.3,    0.0, -999.0
09-03-2023, 00:34:35,     11,    0.3,   -1.4,   0.00,   0.00,  991.4,    0.0, -999.0
09-03-2023, 00:34:45,     11,    0.0,   -1.4,   0.00,   0.00,  991.3,    0.0, -999.0
09-03-2023, 00:34:55,     11,    0.2,   -1.4,   0.00,   0.00,  991.3,    0.0, -999.0
09-03-2023, 00:35:05,      5,    0.9,   -1.5,   0.00,   0.00,  991.4,    0.0, -999.0
09-03-2023, 00:35:15,      5,    0.1,   -1.5,   0.00,   0.00,  991.4,    0.0, -999.0
09-03-2023, 00:35:24,      6,    0.3,   -1.5,   0.00,   0.00,  991.4,    0.0, -999.0
09-03-2023, 00:35:35,      6,    0.5,   -1.5,   0.00,   0.00,  991.4,    0.0, -999.0
09-03-2023, 00:35:45,      5,    0.3,   -1.7,   0.00,   0.00,  991.4,    0.0, -999.0
09-03-2023, 00:35:55,     10,    0.1,   -1.5,   0.00,   0.00,  991.3,    0.0, -999.0
09-03-2023, 00:36:04,     10,    0.0,   -1.4,   0.00,   0.00,  991.3,    0.0, -999.0
09-03-2023, 00:36:15,     14,    0.0,   -1.4,   0.00,   0.00,  991.3,    0.0, -999.0
09-03-2023, 00:36:25,     46,    0.6,   -1.3,   0.00,   0.01,  991.4,    0.0, -999.0
09-03-2023, 00:36:34,     46,    0.0,   -1.2,   0.00,   0.00,  991.3,    0.0, -999.0
09-03-2023, 00:36:44,     46,    0.1,   -1.3,   0.00,   0.00,  991.4,    0.0, -999.0
09-03-2023, 00:36:55,     47,    0.0,   -1.3,   0.00,   0.00,  991.3,    0.1, -999.0
09-03-2023, 00:37:04,     46,    0.1,   -1.1,   0.00,   0.00,  991.4,    0.1, -999.0
09-03-2023, 00:37:14,     47,    0.0,   -1.2,   0.00,   0.00,  991.4,    0.0, -999.0
09-03-2023, 00:37:25,     47,    0.0,   -1.3,   0.00,   0.00,  991.4,    0.0, -999.0
09-03-2023, 00:37:35,     47,    0.0,   -1.4,   0.00,   0.00,  991.4,    0.1, -999.0
09-03-2023, 00:37:44,     47,    0.0,   -1.4,   0.00,   0.00,  991.4,    0.0, -999.0
09-03-2023, 00:37:54,     52,    0.4,   -1.4,   0.00,   0.00,  991.4,    0.0, -999.0
09-03-2023, 00:38:05,     52,    0.7,   -1.3,   0.00,   0.00,  991.5,    0.0, -999.0
09-03-2023, 00:38:14,     52,    0.0,   -1.4,   0.00,   0.00,  991.4,    0.0, -999.0
09-03-2023, 00:38:24,     52,    0.0,   -1.4,   0.00,   0.00,  991.5,    0.1, -999.0
09-03-2023, 00:38:34,     60,    0.0,   -1.5,   0.00,   0.00,  991.4,    0.0, -999.0
09-03-2023, 00:38:44,     59,    0.4,   -1.4,   0.00,   0.00,  991.5,    0.1, -999.0
09-03-2023, 00:38:54,     60,    0.0,   -1.5,   0.00,   0.00,  991.4,    0.1, -999.0
09-03-2023, 00:39:04,     59,    0.0,   -1.5,   0.00,   0.00,  991.4,    0.1, -999.0
09-03-2023, 00:39:14,     60,    0.2,   -1.5,   0.00,   0.00,  991.4,    0.0, -999.0
09-03-2023, 00:39:24,     60,    0.4,   -1.3,   0.00,   0.00,  991.6,    0.1, -999.0
09-03-2023, 00:39:34,     59,    0.3,   -1.4,   0.00,   0.00,  991.5,    0.2, -999.0
09-03-2023, 00:39:44,     59,    0.0,   -1.5,   0.00,   0.00,  991.4,    0.1, -999.0
09-03-2023, 00:39:54,     21,    0.4,   -1.4,   0.00,   0.00,  991.5,    0.2, -999.0
09-03-2023, 00:40:04,     26,    1.0,   -1.4,   0.00,   0.00,  991.6,    0.2, -999.0
09-03-2023, 00:40:14,     50,    0.7,   -1.4,   0.00,   0.00,  991.5,    0.1, -999.0
09-03-2023, 00:40:24,     51,    0.2,   -1.3,   0.00,   0.00,  991.5,    0.1, -999.0
09-03-2023, 00:40:34,     50,    0.5,   -1.3,   0.00,   0.00,  991.6,    0.1, -999.0
09-03-2023, 00:40:44,     51,    0.4,   -1.4,   0.00,   0.00,  991.5,    0.2, -999.0
09-03-2023, 00:40:54,     51,    0.2,   -1.4,   0.00,   0.00,  991.5,    0.1, -999.0
09-03-2023, 00:41:04,     84,    0.0,   -1.6,   0.00,   0.00,  991.5,    0.0, -999.0
09-03-2023, 00:41:14,     40,    0.3,   -1.5,   0.00,   0.01,  991.5,    0.3, -999.0
09-03-2023, 00:41:24,     24,    0.7,   -1.4,   0.00,   0.00,  991.6,    0.3, -999.0
09-03-2023, 00:41:34,     49,    1.6,   -1.4,   0.00,   0.00,  991.6,    0.4, -999.0
09-03-2023, 00:41:44,     58,    1.2,   -1.4,   0.00,   0.00,  991.6,    0.0, -999.0
09-03-2023, 00:41:54,     38,    1.5,   -1.5,   0.00,   0.00,  991.6,    0.1, -999.0
09-03-2023, 00:42:04,     42,    1.3,   -1.3,   0.00,   0.00,  991.6,    0.3, -999.0
09-03-2023, 00:42:14,     72,    0.5,   -1.4,   0.00,   0.00,  991.6,    0.1, -999.0
09-03-2023, 00:42:24,     72,    0.2,   -1.4,   0.00,   0.00,  991.6,    0.0, -999.0
09-03-2023, 00:42:34,     71,    0.1,   -1.3,   0.00,   0.00,  991.6,    0.0, -999.0
09-03-2023, 00:42:44,     71,    0.1,   -1.3,   0.00,   0.00,  991.6,    0.0, -999.0
09-03-2023, 00:42:54,     61,    0.4,   -1.3,   0.00,   0.00,  991.6,    0.2, -999.0
09-03-2023, 00:43:04,     63,    0.1,   -1.3,   0.00,   0.00,  991.6,    0.1, -999.0
09-03-2023, 00:43:14,     62,    0.3,   -1.4,   0.00,   0.00,  991.6,    0.1, -999.0
09-03-2023, 00:43:24,     62,    0.0,   -1.5,   0.00,   0.00,  991.6,    0.0, -999.0
09-03-2023, 00:43:34,     59,    1.0,   -1.4,   0.00,   0.00,  991.7,    0.2, -999.0
09-03-2023, 00:43:44,     60,    0.3,   -1.4,   0.00,   0.00,  991.6,    0.0, -999.0
09-03-2023, 00:43:54,     59,    0.0,   -1.4,   0.00,   0.00,  991.6,    0.0, -999.0
09-03-2023, 00:44:04,     60,    0.0,   -1.4,   0.00,   0.00,  991.6,    0.0, -999.0
09-03-2023, 00:44:14,     60,    0.3,   -1.4,   0.00,   0.00,  991.7,    0.0, -999.0
09-03-2023, 00:44:23,     60,    0.0,   -1.5,   0.00,   0.00,  991.6,    0.0, -999.0
09-03-2023, 00:44:34,     60,    0.0,   -1.4,   0.00,   0.00,  991.6,    0.0, -999.0
09-03-2023, 00:44:44,     54,    0.2,   -1.4,   0.00,   0.00,  991.7,    0.0, -999.0
09-03-2023, 00:44:54,     54,    0.0,   -1.4,   0.00,   0.00,  991.7,    0.1, -999.0
09-03-2023, 00:45:04,     54,    0.0,   -1.6,   0.00,   0.00,  991.6,    0.0, -999.0
09-03-2023, 00:45:14,     54,    0.0,   -1.5,   0.00,   0.00,  991.7,    0.0, -999.0
09-03-2023, 00:45:24,     54,    0.0,   -1.5,   0.00,   0.00,  991.6,    0.1, -999.0
09-03-2023, 00:45:33,     54,    0.0,   -1.5,   0.00,   0.00,  991.6,    0.0, -999.0
09-03-2023, 00:45:43,     54,    0.0,   -1.7,   0.00,   0.00,  991.7,    0.0, -999.0
09-03-2023, 00:45:54,     54,    0.0,   -1.7,   0.00,   0.00,  991.6,    0.0, -999.0
09-03-2023, 00:46:04,     54,    0.1,   -1.6,   0.00,   0.00,  991.7,    0.0, -999.0
09-03-2023, 00:46:13,     54,    0.1,   -1.5,   0.00,   0.00,  991.7,    0.1, -999.0
09-03-2023, 00:46:24,     54,    0.0,   -1.6,   0.00,   0.01,  991.7,    0.1, -999.0
09-03-2023, 00:46:34,     54,    0.0,   -1.6,   0.00,   0.00,  991.7,    0.0, -999.0
09-03-2023, 00:46:43,     54,    0.0,   -1.5,   0.00,   0.00,  991.7,    0.0, -999.0
09-03-2023, 00:46:53,     54,    0.0,   -1.6,   0.00,   0.00,  991.7,    0.0, -999.0